Wind_Speed
20 19 17 16 15 13 9 6 4 3 3 5 8 10 11 10 10 11 11 13 13 13 14 14 15 16 16 16 16 17 16 14 13 11 10 9 7 6 5 4 2 1 1 3
21 19 18 17 16 14 10 8 6 4 5 6 7 8 9 10 10 10 10 12 13 12 12 13 13 14 15 15 15 16 15 14 13 11 10 9 7 6 5 4 3 1 0 1
21 20 20 19 17 15 12 10 9 7 8 9 9 8 10 10 11 10 10 11 12 11 11 12 13 13 13 13 14 14 14 13 13 12 10 9 8 6 4 3 3 1 0 1
23 23 23 21 19 17 14 13 11 9 9 10 11 10 10 10 10 10 10 10 10 11 10 11 12 12 13 13 12 13 13 13 12 12 11 8 7 6 5 4 3 2 1 1
24 23 24 23 20 18 18 15 14 13 12 12 13 13 12 11 10 10 10 10 9 9 9 10 11 12 12 12 12 12 12 12 12 11 11 9 7 6 6 5 4 3 3 2
23 24 24 23 20 20 19 18 18 17 16 15 14 15 14 12 11 11 10 10 10 9 9 10 11 11 11 11 11 11 12 12 12 12 11 9 8 7 5 4 4 4 3 3
24 24 24 23 21 21 21 20 19 19 19 16 15 16 14 11 12 12 11 10 10 9 9 10 12 12 11 11 11 11 11 12 12 12 11 9 8 7 6 5 5 4 4 4
25 24 23 23 23 21 20 21 20 19 17 15 14 15 14 13 12 12 11 11 9 9 8 9 11 11 11 11 10 11 11 12 12 12 11 9 8 8 7 6 6 6 5 5
25 24 23 24 23 22 20 20 19 19 18 17 16 14 14 13 13 11 10 10 9 8 9 9 9 10 11 11 11 11 11 12 12 11 11 10 9 8 8 7 6 6 6 6
25 25 25 24 23 23 22 20 20 21 20 19 17 14 13 14 14 13 13 10 9 8 8 9 9 10 11 11 12 11 11 11 11 11 11 10 9 8 8 7 7 7 7 7
25 25 25 26 26 23 22 22 23 23 22 21 20 18 15 15 14 13 12 12 11 9 8 10 10 11 11 11 12 12 11 11 11 11 11 10 9 8 8 7 7 7 7 8
27 27 27 27 26 24 22 22 23 25 24 23 23 21 16 15 15 14 14 12 12 10 10 11 11 11 11 12 12 11 11 11 11 11 11 10 10 9 8 8 8 8 9 9
29 30 29 28 27 26 25 23 23 25 26 26 26 24 20 18 17 17 16 14 14 14 13 12 11 11 11 12 11 11 12 12 12 11 11 10 10 10 10 10 9 10 10 10
30 32 31 30 28 27 27 26 25 26 28 28 28 27 23 21 19 17 16 15 15 14 13 12 11 12 12 13 12 12 12 12 12 11 11 11 11 12 12 11 11 11 11 12
32 33 33 32 31 30 29 29 28 28 28 29 29 29 26 24 22 20 19 17 17 16 14 14 13 13 13 14 13 13 14 13 13 13 12 12 13 13 13 13 14 14 14 14
34 35 34 34 33 33 31 30 30 31 30 30 30 30 27 25 25 24 22 21 19 18 17 16 15 15 15 14 15 15 15 15 15 15 15 14 14 15 15 15 15 16 16 16
36 36 36 36 35 35 35 33 33 33 33 32 32 31 29 28 26 26 25 24 22 19 19 19 19 19 18 17 16 16 16 16 16 16 16 16 17 17 17 17 17 17 17 18
38 38 38 37 36 38 36 33 34 35 34 33 33 32 31 30 29 28 27 27 24 23 22 22 22 22 21 20 19 18 18 18 18 18 18 18 18 18 18 18 18 19 19 20
38 39 39 39 39 38 36 35 36 36 36 35 35 33 32 32 33 32 29 28 27 27 26 25 24 24 24 22 21 21 20 21 20 20 20 20 20 20 19 19 20 20 21 22
39 39 40 40 40 40 37 36 37 38 38 37 36 36 34 35 35 32 30 30 30 29 28 27 26 27 26 24 23 23 22 23 23 22 22 22 22 22 21 21 21 21 23 23
39 38 39 39 40 40 37 36 36 38 39 37 38 38 37 36 35 34 33 33 32 32 31 29 28 28 27 27 26 25 24 24 25 25 25 24 24 24 23 23 23 23 24 24
38 39 39 40 40 39 38 37 37 38 38 38 38 39 38 36 35 36 35 34 34 34 33 32 31 29 29 29 28 28 27 27 27 27 27 26 26 26 25 25 25 25 25 26
39 39 40 40 40 39 38 38 38 38 38 37 38 38 38 37 36 37 36 35 35 35 34 34 33 31 30 30 30 30 30 29 29 29 29 28 28 28 27 27 27 27 27 27
38 39 39 40 39 39 39 38 39 38 38 38 38 36 35 36 35 36 36 36 36 36 35 35 34 34 33 32 32 32 32 31 31 31 31 30 30 29 28 29 29 28 28 28
37 38 39 40 40 40 40 39 39 38 38 38 39 38 36 35 36 36 36 35 36 36 36 36 35 34 34 34 33 33 33 32 32 33 32 32 32 30 29 29 29 29 28 27
37 38 38 39 40 41 40 40 39 39 39 39 39 40 38 36 37 36 37 36 36 36 35 35 35 35 35 34 34 34 33 34 34 34 34 33 32 32 31 31 30 30 30 29
Wind_Direction
206 202 196 192 188 189 195 196 199 239 281 304 314 317 324 336 346 359 359 359 7 14 18 21 23 23 23 24 23 22 22 22 22 23 21 18 20 18 16 20 28 43 158 194
210 205 198 198 198 199 198 192 185 227 245 269 287 300 314 325 337 351 352 351 359 3 8 14 18 17 18 19 19 18 19 20 21 19 16 12 10 5 4 4 9 29 130 193
212 204 203 205 207 203 200 198 201 226 236 247 267 282 301 314 326 337 341 343 348 356 359 6 10 11 11 12 14 15 17 19 21 18 13 12 9 5 5 0 359 355 255 198
212 206 207 210 213 212 212 207 213 227 237 249 267 275 290 303 314 320 330 334 338 344 349 357 0 2 3 5 7 10 11 14 14 13 13 9 5 3 360 357 348 333 301 259
215 211 211 213 216 215 215 217 219 226 238 245 257 268 279 289 299 305 318 325 327 329 338 347 352 354 357 359 0 2 3 8 10 10 12 10 3 359 357 349 347 335 310 278
217 216 216 216 218 222 223 226 224 228 235 241 249 261 271 278 290 297 309 317 316 315 327 336 345 349 354 356 356 357 359 2 3 4 6 7 2 357 352 341 337 337 317 290
219 219 220 219 218 221 224 228 227 228 234 241 247 257 266 269 280 289 299 306 305 309 321 335 342 344 350 352 353 354 356 358 359 359 0 2 360 353 348 339 326 322 317 311
220 219 221 222 221 222 226 230 232 234 236 238 241 258 266 264 275 284 290 296 298 305 316 330 337 343 348 350 352 353 351 352 354 356 359 357 356 353 347 335 329 325 320 314
222 220 219 221 223 225 226 230 233 236 236 236 240 254 264 264 272 278 285 293 292 298 311 322 329 333 337 341 345 347 348 348 349 350 351 349 345 345 341 331 325 323 314 310
224 222 217 217 220 223 228 231 230 233 237 239 243 256 267 267 271 276 285 295 288 294 303 313 318 322 327 331 335 338 338 340 343 344 344 345 341 337 337 332 323 319 309 304
222 223 216 215 219 220 223 227 231 234 236 241 247 251 260 268 267 272 278 286 292 292 299 303 309 317 321 325 328 332 333 332 334 338 341 342 341 337 332 326 321 318 314 310
223 223 219 218 220 223 225 228 232 234 236 242 247 250 256 265 272 272 275 281 288 288 285 293 302 310 315 320 325 326 327 331 334 337 338 339 337 333 329 323 316 315 314 311
222 223 221 219 220 223 224 227 231 233 237 241 246 251 254 262 267 268 270 274 277 280 289 291 291 300 310 315 319 324 328 331 333 335 336 333 333 331 326 323 318 314 310 308
226 227 226 223 220 223 225 227 231 234 237 240 244 249 254 260 262 264 268 272 276 280 282 286 286 295 303 307 309 312 316 319 322 324 326 327 327 327 324 321 314 310 306 304
230 231 230 228 226 227 229 229 229 234 239 242 244 247 251 256 259 265 268 272 275 278 281 286 288 289 295 301 304 304 308 309 312 315 320 318 316 317 316 313 313 310 308 306
231 233 233 231 229 228 230 230 231 233 237 241 244 245 249 253 256 262 268 272 272 276 282 284 284 287 289 294 298 299 304 306 308 309 312 313 313 312 312 310 312 312 309 307
232 235 236 236 234 232 232 232 232 233 234 239 243 246 248 252 255 260 265 269 268 276 277 278 280 281 282 288 293 295 296 296 298 301 304 307 308 308 310 309 310 310 308 305
233 236 238 238 237 236 233 231 233 234 234 237 242 244 246 249 252 256 261 265 268 276 276 276 279 281 284 286 289 291 294 295 296 299 302 302 303 303 305 307 308 308 308 307
236 237 238 238 238 239 235 234 234 235 234 237 241 243 244 245 248 252 258 264 268 272 272 270 274 279 281 282 283 285 288 292 293 294 296 298 297 297 301 303 304 304 305 306
237 237 238 239 238 238 236 235 236 236 236 237 241 245 246 247 250 254 259 263 267 269 270 272 276 280 280 279 280 281 283 286 289 289 289 290 294 294 296 297 300 302 304 304
236 238 238 239 239 239 237 235 235 238 239 239 242 246 249 247 250 253 257 259 263 266 269 272 274 277 278 277 278 278 280 282 284 284 285 286 289 291 292 294 296 298 301 303
236 238 239 240 241 240 239 238 237 240 242 243 245 247 248 248 251 253 256 258 261 264 267 270 271 273 274 276 278 278 279 278 279 280 283 284 286 289 290 291 294 297 300 302
237 238 239 240 242 242 242 241 240 241 242 245 245 248 248 248 249 253 257 259 260 261 264 267 270 272 272 274 276 278 279 279 279 280 282 282 283 287 291 292 293 297 299 300
238 240 240 241 242 243 243 243 241 241 243 246 247 249 249 248 250 254 257 258 258 260 262 265 268 271 272 273 275 277 278 278 278 280 282 282 284 289 290 291 293 295 298 297
237 239 241 242 243 244 244 245 244 244 245 246 247 249 248 248 252 256 255 255 258 260 262 265 268 270 271 273 274 275 276 276 278 281 281 282 285 287 288 291 292 293 295 295
237 238 240 243 243 245 245 244 246 246 245 247 247 247 248 249 252 255 257 258 259 261 261 264 267 269 270 271 272 274 275 277 279 280 282 282 284 285 286 288 290 291 292 293
Height
5934 5937 5938 5939 5941 5942 5941 5942 5943 5944 5944 5944 5943 5943 5942 5940 5940 5939 5937 5935 5933 5931 5929 5926 5925 5923 5920 5919 5916 5914 5911 5909 5907 5905 5904 5903 5902 5901 5900 5899 5898 5898 5897 5897
5931 5934 5936 5937 5938 5939 5939 5940 5942 5943 5942 5942 5942 5941 5941 5940 5939 5938 5937 5935 5933 5932 5930 5927 5926 5924 5921 5919 5917 5915 5912 5910 5908 5906 5904 5903 5902 5901 5900 5899 5898 5897 5897 5896
5928 5932 5932 5933 5935 5936 5938 5939 5940 5941 5941 5941 5941 5941 5940 5939 5938 5937 5937 5935 5934 5931 5930 5928 5927 5925 5922 5920 5917 5915 5913 5911 5908 5906 5904 5903 5901 5900 5899 5899 5898 5897 5896 5896
5923 5927 5928 5930 5932 5933 5935 5937 5937 5938 5939 5939 5940 5939 5939 5937 5936 5936 5936 5935 5933 5932 5930 5928 5927 5925 5922 5920 5917 5915 5913 5911 5908 5906 5904 5902 5901 5900 5899 5898 5897 5896 5896 5895
5920 5922 5924 5926 5929 5930 5932 5933 5935 5936 5937 5938 5938 5938 5938 5935 5935 5935 5935 5934 5932 5931 5930 5927 5926 5924 5922 5919 5917 5915 5913 5910 5908 5906 5903 5901 5900 5899 5898 5897 5896 5895 5895 5894
5916 5918 5920 5923 5926 5927 5929 5931 5932 5933 5934 5935 5936 5935 5935 5934 5933 5933 5933 5932 5931 5930 5928 5926 5925 5922 5920 5918 5916 5914 5913 5910 5907 5905 5903 5901 5899 5898 5897 5896 5895 5894 5894 5893
5911 5914 5916 5919 5921 5923 5925 5927 5929 5930 5931 5932 5932 5931 5932 5932 5931 5931 5931 5930 5929 5928 5926 5924 5923 5921 5919 5917 5915 5913 5911 5909 5907 5904 5902 5900 5899 5897 5896 5895 5895 5894 5893 5892
5906 5910 5913 5915 5917 5919 5921 5923 5926 5927 5928 5929 5929 5928 5929 5929 5929 5928 5928 5927 5926 5926 5925 5924 5922 5920 5918 5916 5914 5912 5910 5908 5906 5904 5901 5899 5898 5896 5895 5894 5893 5892 5891 5891
5900 5905 5908 5910 5913 5915 5917 5919 5921 5923 5923 5924 5925 5925 5925 5925 5925 5925 5925 5924 5923 5923 5923 5922 5921 5919 5917 5915 5913 5910 5908 5907 5905 5902 5900 5898 5896 5895 5894 5893 5891 5891 5890 5889
5895 5899 5903 5906 5908 5910 5913 5915 5917 5918 5919 5919 5921 5921 5922 5921 5922 5922 5921 5920 5921 5921 5920 5919 5918 5917 5915 5913 5911 5908 5906 5904 5902 5900 5898 5896 5894 5893 5892 5891 5890 5889 5888 5887
5890 5894 5898 5900 5902 5905 5908 5910 5911 5913 5914 5915 5916 5919 5918 5917 5917 5918 5918 5918 5918 5918 5917 5917 5916 5915 5913 5911 5908 5906 5904 5902 5900 5898 5896 5894 5893 5891 5890 5889 5888 5887 5886 5885
5884 5887 5891 5895 5898 5900 5902 5905 5907 5908 5910 5911 5911 5915 5914 5914 5914 5914 5915 5914 5915 5914 5914 5914 5913 5912 5910 5908 5906 5903 5901 5900 5898 5896 5894 5892 5891 5889 5888 5887 5886 5885 5884 5882
5878 5881 5885 5889 5894 5895 5897 5899 5901 5903 5904 5905 5906 5910 5909 5910 5911 5911 5911 5911 5911 5911 5911 5911 5910 5909 5908 5906 5904 5902 5900 5898 5896 5894 5892 5890 5889 5888 5886 5885 5884 5883 5881 5880
5872 5875 5879 5883 5886 5888 5891 5893 5895 5897 5898 5900 5901 5903 5904 5906 5907 5907 5907 5907 5907 5907 5907 5907 5906 5906 5905 5904 5902 5900 5898 5896 5894 5892 5890 5889 5887 5886 5884 5883 5881 5880 5878 5877
5866 5869 5872 5876 5880 5882 5885 5887 5889 5891 5892 5894 5895 5896 5899 5900 5902 5902 5903 5902 5903 5903 5903 5903 5903 5902 5901 5900 5898 5896 5895 5893 5892 5890 5888 5887 5885 5883 5882 5880 5878 5877 5875 5873
5858 5862 5865 5869 5873 5875 5878 5881 5883 5885 5886 5887 5888 5890 5893 5894 5896 5896 5897 5898 5898 5899 5899 5899 5899 5898 5897 5896 5894 5893 5892 5891 5889 5888 5886 5884 5882 5880 5878 5876 5874 5873 5871 5869
5851 5854 5858 5861 5865 5868 5870 5873 5876 5877 5879 5880 5882 5885 5886 5887 5889 5890 5892 5892 5893 5894 5894 5894 5894 5894 5892 5891 5890 5890 5888 5887 5885 5883 5882 5880 5878 5876 5874 5872 5870 5868 5867 5865
5843 5846 5849 5852 5857 5859 5865 5866 5868 5869 5872 5874 5875 5877 5879 5881 5883 5884 5886 5886 5886 5888 5889 5889 5888 5888 5887 5887 5886 5885 5884 5882 5881 5879 5877 5876 5874 5872 5870 5868 5866 5864 5862 5860
5835 5838 5840 5843 5846 5850 5855 5858 5860 5861 5864 5867 5868 5870 5872 5874 5876 5877 5879 5880 5881 5882 5883 5883 5882 5882 5881 5881 5880 5879 5879 5877 5876 5874 5873 5871 5869 5867 5865 5863 5861 5859 5857 5855
5826 5828 5832 5834 5837 5840 5847 5850 5851 5854 5856 5859 5861 5863 5865 5866 5868 5870 5872 5873 5874 5875 5876 5876 5876 5875 5875 5874 5874 5873 5872 5871 5870 5869 5867 5866 5864 5862 5860 5858 5856 5854 5851 5849
5817 5819 5822 5825 5827 5831 5837 5840 5843 5846 5848 5851 5853 5855 5856 5857 5860 5863 5864 5865 5866 5868 5868 5869 5869 5869 5868 5868 5867 5866 5865 5864 5864 5862 5860 5859 5857 5855 5854 5852 5850 5848 5845 5842
5807 5810 5813 5816 5819 5825 5827 5830 5834 5836 5839 5842 5844 5846 5848 5849 5852 5854 5855 5856 5857 5859 5860 5860 5860 5861 5860 5860 5859 5859 5858 5856 5855 5854 5853 5852 5850 5848 5847 5845 5843 5841 5839 5836
5797 5800 5803 5807 5811 5814 5817 5821 5825 5827 5830 5832 5835 5837 5839 5841 5843 5845 5846 5847 5849 5850 5851 5851 5852 5852 5852 5852 5852 5851 5850 5848 5847 5847 5845 5844 5843 5841 5839 5837 5836 5834 5832 5830
5788 5790 5794 5797 5800 5804 5808 5811 5814 5817 5820 5823 5826 5827 5829 5831 5833 5835 5836 5838 5839 5840 5841 5841 5842 5843 5843 5843 5843 5842 5841 5840 5839 5839 5837 5836 5835 5834 5832 5831 5828 5826 5824 5822
5779 5782 5784 5787 5791 5795 5798 5801 5805 5808 5810 5813 5816 5817 5818 5820 5823 5825 5826 5828 5829 5830 5831 5832 5832 5833 5834 5834 5833 5833 5832 5830 5830 5830 5829 5828 5827 5825 5823 5822 5820 5819 5817 5815
5770 5773 5775 5778 5782 5785 5788 5791 5795 5798 5801 5803 5805 5807 5808 5810 5813 5815 5817 5818 5819 5820 5820 5821 5822 5823 5823 5824 5824 5823 5823 5822 5822 5821 5820 5819 5818 5817 5816 5815 5812 5810 5809 5807